This demonstration page uses our WeatherBlox Daily Observations layout. Learn more.

38.89511, -77.03637

Hourly Observations for May 30, 2019

Temp ( °F °C ) Dew Point ( °F °C ) Humidity (%) Winds ( mph kmh ) Pressure ( in mb ) Visibility ( mi km ) Precip ( " mm )
12:52 am 00:52 Mostly Cloudy 79 26.1 62 16.7 56 56 WSW 5 7 29.77 1008 10 16.09344 0 0
1:52 am 01:52 Cloudy 79 26.1 60 15.6 52 52 W 7 11 29.77 1008 10 16.09344 0 0
2:52 am 02:52 Mostly Cloudy 77 25 60 15.6 56 56 W 6 9 29.77 1008 10 16.09344 0 0
3:52 am 03:52 Clear 75 23.9 61 16.1 62 62 SW 3 6 29.77 1008 10 16.09344 0 0
4:52 am 04:52 Mostly Clear 74 23.3 61 16.1 64 64 W 5 7 29.77 1008 10 16.09344 0 0
5:52 am 05:52 Partly Cloudy 72 22.2 61 16.1 68 68 Calm 29.77 1008 10 16.09344 0 0
6:52 am 06:52 Mostly Sunny 74 23.3 61 16.1 64 64 SW 5 7 29.8 1009 10 16.09344 0 0
7:52 am 07:52 Partly Cloudy 77 25 61 16.1 58 58 SW 5 7 29.8 1009 10 16.09344 0 0
8:52 am 08:52 Partly Cloudy 77 25 64 17.8 64 64 SSE 5 7 29.8 1009 10 16.09344 0 0
9:52 am 09:52 Mostly Cloudy 80 26.7 64 17.8 58 58 S 7 11 29.8 1009 10 16.09344 0 0
10:52 am 10:52 Mostly Cloudy 83 28.3 67 19.4 59 59 S 10 17 29.8 1009 10 16.09344 0 0
11:52 am 11:52 Partly Cloudy 85 29.4 65 18.3 51 51 S 12 19 29.77 1008 10 16.09344 0 0
12:52 pm 12:52 Mostly Cloudy 84 28.9 65 18.3 53 53 S 14 22 29.77 1008 10 16.09344 0 0
1:52 pm 13:52 Cloudy 87 30.6 66 18.9 50 50 SSW 13 20 29.74 1007 10 16.09344 0 0
2:52 pm 14:52 Cloudy 88 31.1 67 19.4 50 50 SSW 14 22 29.71 1006 10 16.09344 0 0
3:35 pm 15:35 Windy with Storms Likely 86 30 65 18.3 49 49 W 21 33 29.74 1007 10 16.09344 0.001 0.001
3:43 pm 15:43 Windy with Storms Likely 75 23.9 64 17.8 69 69 NW 32 52 29.77 1008 0.5 0.804672 0 0
3:49 pm 15:49 Cloudy with Light Thunderstorms 75 24 63 17 65 65 W 12 19 29.77 1008 4 6.437376 0.18 4.572
3:50 pm 15:50 Cloudy with Light Thunderstorms 74 23.3 64 17.8 71 71 WSW 12 19 29.77 1008 4 6.437376 0.18 4.572
4:40 pm 16:40 Mostly Cloudy with Light Rain 74 23.3 66 18.9 76 76 W 9 15 29.74 1007 10 16.09344 0.08 2.032
4:52 pm 16:52 Cloudy 75 23.9 68 20 79 79 SSW 9 15 29.71 1006 10 16.09344 0.08 2.032
5:52 pm 17:52 Cloudy 77 25 69 20.6 77 77 SW 6 9 29.71 1006 10 16.09344 0 0
6:52 pm 18:52 Mostly Cloudy 77 25 68 20 74 74 VRB 3 6 29.71 1006 10 16.09344 0 0
7:52 pm 19:52 Cloudy 78 25.6 68 20 71 71 WSW 12 19 29.74 1007 10 16.09344 0 0
7:57 pm 19:57 Cloudy with Light Thunderstorms 77 25 69 20.6 77 77 SSW 15 24 29.77 1008 3 4.828032 0.001 0.001
8:20 pm 20:20 Cloudy with Light Rain 76 24.4 69 20.6 79 79 WNW 3 6 29.74 1007 10 16.09344 0.03 0.762
8:52 pm 20:52 Cloudy 76 24.4 69 20.6 79 79 NNW 6 9 29.74 1007 10 16.09344 0.03 0.762
9:52 pm 21:52 Cloudy 75 23.9 69 20.6 82 82 S 6 9 29.74 1007 10 16.09344 0 0
11:52 pm 23:52 Mostly Cloudy 74 23.3 62 16.7 67 67 WNW 10 17 29.74 1007 10 16.09344 0.001 0.001

Powered by AerisWeather